Home   Weather   Chittorgarh   Past weeks

Flag for India Past Weather in Chittorgarh, Rajasthan, India — Yesterday and Last 2 Weeks

Now
84 °F

Haze.


Feels Like: 82 °F
Forecast: 77 / 100 °F
Wind: 3 mph from Southwest

Location: Jaipur / Sanganer

Current Time: Apr 30, 2017 at 5:01:25 am

Latest Report: Apr 30, 2017 at 3:00 am


Visibility: 2 mi

Pressure: 29.74 "Hg (28.03 "Hg at 524m altitude)

Humidity: 25%

Dew Point: 45 °F

Location of ChittorgarhLocation

Past Weather in Chittorgarh — Graph

°F

Chittorgarh Temperature Yesterday

Maximum temperature yesterday: 99 °F (at 3:00 pm)
Minimum temperature yesterday: 81 °F (at 5:00 am)
Average temperature yesterday: 90 °F

High & Low Weather Summary for the Past Weeks

 TemperatureHumidityPressure
High109 °F (Apr 16, 4:00 pm)61% (Apr 26, 6:00 am)29.95 "Hg (Apr 26, 6:00 am)
Low72 °F (Apr 26, 5:30 am)3% (Apr 15, 5:30 pm)29.56 "Hg (Apr 20, 4:00 pm)
Average93 °F18%29.74 "Hg
* Reported Apr 15 2:30 am — Apr 30 3:00 am, Chittorgarh, Weather by CustomWeather, © 2017

Note: Actual official high and low records may vary slightly from our data, if they occured in-between our weather recording intervals... More about our weather records

Advertising

Chittorgarh Weather History for the Previous 24 Hours

Scroll right to see more
 ConditionsComfort  
Time TempWeatherWind HumidityBarometerVisibility
3:00 am
Sun, Apr 30
84 °FHaze.3 mph25%29.74 "Hg2 mi
2:30 am86 °FHaze.7 mph24%29.74 "Hg2 mi
2:00 am86 °FHaze.12 mph22%29.77 "Hg2 mi
1:00 am86 °FHaze.6 mph25%29.77 "Hg2 mi
12:00 am88 °FPassing clouds.9 mph25%29.80 "Hg2 mi
11:30 pm
Sat, Apr 29
88 °FPassing clouds.5 mph27%29.80 "Hg2 mi
11:00 pm88 °FPassing clouds.7 mph27%29.80 "Hg2 mi
10:30 pm88 °FPassing clouds.9 mph27%29.80 "Hg2 mi
10:00 pm90 °FPassing clouds.8 mph26%29.80 "Hg2 mi
9:30 pm90 °FPassing clouds.2 mph26%29.77 "Hg2 mi
9:00 pm90 °FPassing clouds.No wind22%29.77 "Hg2 mi
8:30 pm91 °FPassing clouds.No wind21%29.74 "Hg2 mi
8:00 pm99 °FPassing clouds.No wind16%29.74 "Hg2 mi
7:30 pm93 °FPassing clouds.No wind17%29.74 "Hg3 mi
7:00 pm95 °FScattered clouds.3 mph15%29.74 "Hg3 mi
6:00 pm97 °FBroken clouds.7 mph14%29.71 "Hg3 mi
5:30 pm97 °FBroken clouds.6 mph14%29.74 "Hg3 mi
5:00 pm97 °FBroken clouds.6 mph13%29.74 "Hg3 mi
4:30 pm97 °FBroken clouds.5 mph13%29.74 "Hg3 mi
4:00 pm99 °FBroken clouds.8 mph13%29.74 "Hg3 mi
3:00 pm99 °FBroken clouds.10 mph14%29.77 "Hg3 mi
2:30 pm95 °FBroken clouds.7 mph16%29.77 "Hg3 mi
2:00 pm95 °FBroken clouds.10 mph16%29.80 "Hg3 mi
1:30 pm95 °FBroken clouds.12 mph16%29.80 "Hg3 mi
1:00 pm93 °FBroken clouds.6 mph17%29.80 "Hg3 mi
12:30 pm93 °FScattered clouds.9 mph17%29.83 "Hg2 mi
12:00 pm90 °FBroken clouds.7 mph21%29.86 "Hg2 mi
11:30 am90 °FBroken clouds.14 mph21%29.86 "Hg2 mi
11:00 am93 °FBroken clouds.15 mph17%29.86 "Hg2 mi
10:30 am93 °FBroken clouds.16 mph19%29.86 "Hg2 mi
10:00 am93 °FBroken clouds.12 mph17%29.86 "Hg2 mi
9:30 am93 °FHaze.7 mph17%29.83 "Hg2 mi
9:00 am90 °FHaze.9 mph21%29.83 "Hg2 mi
8:35 am88 °FHaze.15 mph22%29.83 "Hg2 mi
7:30 am84 °FHaze.6 mph27%29.80 "Hg2 mi
7:00 am82 °FHaze.6 mph28%29.80 "Hg2 mi
6:30 am81 °FHaze.7 mph30%29.77 "Hg2 mi
6:00 am81 °FHaze.6 mph30%29.77 "Hg2 mi
5:30 am81 °FHaze.8 mph30%29.77 "Hg2 mi
5:00 am81 °FPassing clouds.9 mph30%29.77 "Hg2 mi
Weather by CustomWeather, © 2017

See weather overviewHow to use our weather pages